User: anonymous   Login
Location: Aalen
(48.8330°N, 10.1000°E)
Time: 20:21:46
(UTC+02:00)
Language:

SL-19 R/B - Orbit

View from above orbital plane
View from above orbital plane
View from above satellite
View from above satellite

Ground track
Ground track

The orbit data is extracted from the following two-line orbital elements,

1 37363U 11005B   22222.33904200  .00007691  00000-0  23159-3 0  9996
2 37363  99.3897 348.5165 0304476 201.5409 157.2771 14.99819510624634
Epoch (UTC): 10 August 2022 08:08:13
Eccentricity: 0.0304476
inclination: 99.3897°
perigee height: 356 km
apogee height: 779 km
right ascension of ascending node: 348.5165°
argument of perigee: 201.5409°
revolutions per day: 14.99819510
mean anomaly at epoch: 157.2771°
orbit number at epoch: 62463

The dashed part of the orbit path shows where the satellite is in the earth's shadow,  

DLR